Hourly Weather Ludwinow

Today, 20 June, Sunday

Time Temperature Precipitation Wind Pressure Humidity
00:00 +22°C° 0 mm 3 mps 752 mmHg 78%
01:00 +21°C° 0 mm 3 mps 752 mmHg 81%
02:00 +21°C° 0 mm 4 mps 751 mmHg 83%
03:00 +21°C° 0 mm 4 mps 751 mmHg 84%
04:00 +20°C° 0 mm 4 mps 751 mmHg 85%
05:00 +21°C° 0 mm 4 mps 751 mmHg 79%
06:00 +23°C° 0 mm 4 mps 751 mmHg 74%
07:00 +25°C° 0 mm 5 mps 751 mmHg 69%
08:00 +26°C° 0 mm 5 mps 751 mmHg 63%
09:00 +28°C° 0 mm 5 mps 751 mmHg 58%
10:00 +29°C° 0 mm 6 mps 751 mmHg 52%
11:00 +30°C° 0 mm 5 mps 751 mmHg 49%
12:00 +32°C° 0 mm 5 mps 751 mmHg 46%
13:00 +32°C° 0 mm 5 mps 750 mmHg 44%
14:00 +32°C° 0 mm 4 mps 750 mmHg 45%
15:00 +32°C° 0 mm 4 mps 750 mmHg 46%
16:00 +32°C° 0 mm 4 mps 750 mmHg 47%
17:00 +30°C° 0 mm 4 mps 749 mmHg 53%
18:00 +28°C° 0 mm 4 mps 749 mmHg 60%
19:00 +27°C° 0 mm 4 mps 749 mmHg 66%
20:00 +25°C° 0 mm 3 mps 749 mmHg 69%
21:00 +24°C° 0 mm 3 mps 749 mmHg 71%
22:00 +22°C° 0 mm 3 mps 749 mmHg 74%
23:00 +21°C° 0 mm 3 mps 749 mmHg 75%

Tomorrow, 21 June, Monday

Time Temperature Precipitation Wind Pressure Humidity
00:00 +21°C° 0 mm 3 mps 748 mmHg 76%
01:00 +20°C° 0 mm 3 mps 748 mmHg 76%
02:00 +20°C° 0 mm 4 mps 748 mmHg 80%
03:00 +19°C° 0 mm 4 mps 748 mmHg 84%
04:00 +19°C° 0 mm 4 mps 748 mmHg 87%
05:00 +21°C° 0 mm 4 mps 748 mmHg 82%
06:00 +22°C° 0 mm 5 mps 748 mmHg 76%
07:00 +25°C° 0 mm 5 mps 748 mmHg 70%
08:00 +27°C° 0 mm 5 mps 748 mmHg 65%
09:00 +28°C° 0 mm 5 mps 748 mmHg 60%
10:00 +29°C° 0 mm 5 mps 748 mmHg 54%
11:00 +30°C° 0 mm 4 mps 747 mmHg 51%
12:00 +32°C° 0 mm 4 mps 747 mmHg 48%
13:00 +33°C° 0 mm 3 mps 747 mmHg 45%
14:00 +33°C° 0 mm 3 mps 747 mmHg 45%
15:00 +33°C° 0 mm 4 mps 746 mmHg 45%
16:00 +34°C° 0 mm 4 mps 746 mmHg 45%
17:00 +29°C° 0.8 mm 5 mps 747 mmHg 59%
18:00 +25°C° 0.8 mm 5 mps 747 mmHg 74%
19:00 +21°C° 0.8 mm 6 mps 748 mmHg 88%
20:00 +20°C° 2 mm 5 mps 748 mmHg 90%
21:00 +20°C° 2 mm 4 mps 748 mmHg 91%
22:00 +20°C° 2 mm 3 mps 748 mmHg 93%
23:00 +20°C° 0.1 mm 2 mps 748 mmHg 93%

Day after tomorrow, 22 June, Tuesday

Time Temperature Precipitation Wind Pressure Humidity
00:00 +19°C° 0.1 mm 2 mps 748 mmHg 93%
01:00 +20°C° 0.1 mm 1 mps 748 mmHg 92%
02:00 +19°C° 0 mm 2 mps 748 mmHg 93%
03:00 +19°C° 0 mm 2 mps 748 mmHg 93%
04:00 +18°C° 0 mm 2 mps 749 mmHg 94%
05:00 +20°C° 0 mm 2 mps 749 mmHg 89%
06:00 +21°C° 0 mm 2 mps 749 mmHg 85%
07:00 +23°C° 0 mm 2 mps 750 mmHg 80%
08:00 +24°C° 0 mm 2 mps 750 mmHg 75%
09:00 +26°C° 0 mm 2 mps 750 mmHg 70%
10:00 +27°C° 0 mm 3 mps 750 mmHg 65%
11:00 +28°C° 0 mm 3 mps 750 mmHg 62%
12:00 +28°C° 0 mm 3 mps 750 mmHg 59%
13:00 +29°C° 0 mm 3 mps 750 mmHg 57%
14:00 +29°C° 0 mm 2 mps 750 mmHg 56%
15:00 +29°C° 0 mm 2 mps 750 mmHg 56%
16:00 +29°C° 0 mm 2 mps 750 mmHg 55%
17:00 +28°C° 0 mm 2 mps 750 mmHg 59%
18:00 +27°C° 0 mm 2 mps 750 mmHg 64%
19:00 +26°C° 0 mm 2 mps 750 mmHg 68%
20:00 +25°C° 0 mm 3 mps 750 mmHg 70%
21:00 +24°C° 0 mm 3 mps 750 mmHg 71%
22:00 +21°C° 0 mm 3 mps 751 mmHg 73%
23:00 +21°C° 0 mm 4 mps 751 mmHg 79%

23 June, Wednesday

Time Temperature Precipitation Wind Pressure Humidity
00:00 +20°C° 0 mm 4 mps 751 mmHg 85%
01:00 +20°C° 0 mm 4 mps 751 mmHg 91%
02:00 +19°C° 0.2 mm 4 mps 750 mmHg 90%
03:00 +18°C° 0.2 mm 3 mps 750 mmHg 90%
04:00 +18°C° 0.2 mm 3 mps 750 mmHg 89%
05:00 +18°C° 1.6 mm 3 mps 750 mmHg 90%
06:00 +19°C° 1.6 mm 4 mps 751 mmHg 92%
07:00 +19°C° 1.6 mm 4 mps 751 mmHg 93%
08:00 +21°C° 0.1 mm 3 mps 751 mmHg 86%
09:00 +25°C° 0.1 mm 3 mps 751 mmHg 79%
10:00 +27°C° 0.1 mm 3 mps 751 mmHg 72%
11:00 +27°C° 0 mm 4 mps 751 mmHg 72%
12:00 +27°C° 0 mm 5 mps 752 mmHg 71%
13:00 +27°C° 0 mm 6 mps 752 mmHg 70%
14:00 +26°C° 0 mm 6 mps 752 mmHg 69%
15:00 +26°C° 0 mm 6 mps 753 mmHg 68%
16:00 +26°C° 0 mm 6 mps 753 mmHg 68%
17:00 +24°C° 0 mm 6 mps 753 mmHg 71%
18:00 +22°C° 0 mm 5 mps 754 mmHg 75%
19:00 +21°C° 0 mm 5 mps 754 mmHg 79%
20:00 +20°C° 0 mm 4 mps 754 mmHg 82%
21:00 +18°C° 0 mm 4 mps 755 mmHg 85%
22:00 +17°C° 0 mm 4 mps 755 mmHg 88%
23:00 +16°C° 0 mm 3 mps 755 mmHg 90%

24 June, Thursday

Time Temperature Precipitation Wind Pressure Humidity
00:00 +14°C° 0 mm 3 mps 755 mmHg 93%
01:00 +14°C° 0 mm 3 mps 755 mmHg 95%
02:00 +14°C° 0 mm 2 mps 755 mmHg 96%
03:00 +14°C° 0 mm 2 mps 755 mmHg 96%
04:00 +13°C° 0 mm 2 mps 755 mmHg 96%
05:00 +15°C° 0 mm 2 mps 755 mmHg 90%
06:00 +16°C° 0 mm 2 mps 755 mmHg 85%
07:00 +18°C° 0 mm 2 mps 755 mmHg 79%
08:00 +19°C° 0 mm 2 mps 755 mmHg 75%
09:00 +20°C° 0 mm 2 mps 755 mmHg 71%
10:00 +21°C° 0 mm 2 mps 755 mmHg 67%
11:00 +21°C° 0.2 mm 2 mps 755 mmHg 69%
12:00 +21°C° 0.2 mm 2 mps 755 mmHg 72%
13:00 +22°C° 0.2 mm 1 mps 755 mmHg 74%
14:00 +20°C° 0 mm 2 mps 755 mmHg 77%
15:00 +20°C° 0 mm 2 mps 755 mmHg 80%
16:00 +20°C° 0 mm 3 mps 755 mmHg 83%
17:00 +19°C° 0 mm 3 mps 755 mmHg 84%
18:00 +19°C° 0 mm 3 mps 755 mmHg 85%
19:00 +18°C° 0 mm 3 mps 755 mmHg 87%
20:00 +18°C° 0 mm 3 mps 755 mmHg 88%
21:00 +18°C° 0 mm 3 mps 755 mmHg 89%
22:00 +17°C° 0 mm 2 mps 755 mmHg 90%
23:00 +17°C° 0 mm 3 mps 755 mmHg 91%

25 June, Friday

Time Temperature Precipitation Wind Pressure Humidity
00:00 +17°C° 0 mm 3 mps 755 mmHg 93%
01:00 +17°C° 0 mm 3 mps 755 mmHg 94%
02:00 +16°C° 0 mm 3 mps 755 mmHg 95%
03:00 +16°C° 0 mm 3 mps 755 mmHg 95%
04:00 +16°C° 0 mm 3 mps 755 mmHg 95%
05:00 +16°C° 0 mm 3 mps 755 mmHg 93%
06:00 +17°C° 0 mm 3 mps 755 mmHg 91%
07:00 +17°C° 0 mm 3 mps 755 mmHg 88%
08:00 +18°C° 0 mm 3 mps 755 mmHg 85%
09:00 +18°C° 0 mm 3 mps 755 mmHg 81%
10:00 +19°C° 0 mm 3 mps 755 mmHg 77%
11:00 +20°C° 0.1 mm 3 mps 755 mmHg 73%
12:00 +21°C° 0.1 mm 3 mps 755 mmHg 68%
13:00 +24°C° 0.1 mm 2 mps 755 mmHg 63%
14:00 +22°C° 0.2 mm 3 mps 754 mmHg 65%
15:00 +22°C° 0.2 mm 3 mps 754 mmHg 66%
16:00 +22°C° 0.2 mm 3 mps 754 mmHg 68%
17:00 +21°C° 0.2 mm 2 mps 754 mmHg 71%
18:00 +21°C° 0.2 mm 2 mps 754 mmHg 75%
19:00 +20°C° 0.2 mm 2 mps 754 mmHg 79%
20:00 +19°C° 0 mm 2 mps 754 mmHg 81%
21:00 +18°C° 0 mm 2 mps 754 mmHg 82%
22:00 +18°C° 0 mm 3 mps 754 mmHg 84%
23:00 +17°C° 0 mm 3 mps 754 mmHg 85%
Show more

We Need Your Consent

Meteoprog and our Service Providers may store and access personal data such as cookies, device identifiers or other similar technologies on your device and process such data to personalise content and ads, as well as provide social media features and to analyse the traffic.

  • Store and/or access information on your device

    Cookies, device identifiers or other information can be stored or accessed on your device for the purposes indicated above.

  • Personalised ads and content, ad and content measurement, audience insights, and products development

    Ads and content can be personalised based on a profile. More data can be added to better personalise ads and content. Ad and content performance can be measured. Insights about the audience who saw the ads and content can be derived. Such data can be used to develop or improve user’s experience, systems and software.

By clicking ‘I Agree’ you will allow the use of indicated cookies, device identifiers, web beacons or other similar technologies. Your settings can be changed in the browser on your device.

For certain purposes, legitimate interests may be relied on, rather than consent. You can read more about this in our Privacy and Cookie Policy.